Tokyo, Japan

6:33 AM JST on November 18, 2018 (GMT +0900)
Tokyo (Haneda) International

Weather History for RJTT - November, 2018

Change the Weather History Date:

Friday, November 9, 2018

  Actual Average Record
Temperature  
Mean Temperature 62 °F -  
Max Temperature 64 °F 57 °F 75 °F (1998)
Min Temperature 59 °F 46 °F 42 °F (2002)
Degree Days  
Heating Degree Days 4    
Growing Degree Days 12 (Base 50)    
Moisture  
Dew Point 60 °F    
Average Humidity 96    
Maximum Humidity 100    
Minimum Humidity 83    
Precipitation  
Precipitation 0.00 in - - ()
Sea Level Pressure  
Sea Level Pressure 30.10 in    
Wind  
Wind Speed 8 mph ()    
Max Wind Speed 15 mph    
Max Gust Speed -    
Visibility 3.8 miles    
Events Rain    
Averages and records for this station are not official NWS values.
T = Trace of Precipitation, MM = Missing Value Source: Averaged Metar Reports

Daily Weather History Graph

Daily Weather History Graph

Search for Another Location

Airport or City:

Astronomy

Nov. 09, 2018 Rise Set
Actual Time 6:09 AM JST 4:38 PM JST
Civil Twilight 5:43 AM JST 5:05 PM JST
Nautical Twilight 5:12 AM JST 5:36 PM JST
Astronomical Twilight 4:42 AM JST 6:06 PM JST
Moon 7:20 AM JST (11/9) 5:59 PM JST (11/9)
Length of Visible Light 11h 22m
Length of Day
10h 29m
New Moon, 2% of the Moon is Illuminated
Nov 9
New Moon
Nov 15
First Quarter
Nov 23
Full
Nov 30
Last Quarter
Dec 7
New

Hourly Weather History & Observations

Time (JST) Temp. Dew Point Humidity Pressure Visibility Wind Dir Wind Speed Gust Speed Precip Events Conditions
12:00 AM 60.8 °F 59.0 °F 94% 30.18 in 3.7 mi North 11.5 mph - N/A Rain Light Rain
12:17 AM 59.0 °F 59.0 °F 100% 30.18 in 2.5 mi NW 9.2 mph - N/A Rain Light Rain
12:30 AM 59.0 °F 59.0 °F 100% 30.18 in 3.1 mi NW 9.2 mph - N/A Rain Light Rain
12:35 AM 59.0 °F 59.0 °F 100% 30.18 in 2.2 mi WNW 10.4 mph - N/A Rain Light Rain
12:39 AM 59.0 °F 59.0 °F 100% 30.18 in 1.9 mi WNW 11.5 mph - N/A Rain Light Rain
12:43 AM 59.0 °F 59.0 °F 100% 30.18 in 2.2 mi WNW 11.5 mph - N/A Rain Rain
1:00 AM 59.0 °F 59.0 °F 100% 30.15 in 2.5 mi NW 10.4 mph - N/A Rain Light Rain
1:17 AM 59.0 °F 59.0 °F 100% 30.15 in 3.1 mi NNW 9.2 mph - N/A Rain Light Rain
1:30 AM 59.0 °F 59.0 °F 100% 30.15 in 3.7 mi NNW 11.5 mph - N/A Rain Light Rain
2:00 AM 59.0 °F 59.0 °F 100% 30.15 in 4.3 mi North 12.7 mph - N/A Rain Light Rain
2:16 AM 59.0 °F 57.2 °F 94% 30.15 in 5.0 mi NNW 12.7 mph - N/A Rain Light Rain
2:30 AM 59.0 °F 57.2 °F 94% 30.15 in 5.6 mi NNW 11.5 mph - N/A Rain Light Rain
3:00 AM 59.0 °F 59.0 °F 100% 30.15 in 3.7 mi NNW 10.4 mph - N/A Rain Light Rain
3:17 AM 59.0 °F 59.0 °F 100% 30.15 in 4.3 mi North 11.5 mph - N/A Rain Light Rain
3:30 AM 59.0 °F 57.2 °F 94% 30.15 in 4.3 mi North 9.2 mph - N/A Rain Light Rain
4:00 AM 59.0 °F 57.2 °F 94% 30.15 in 5.0 mi NNW 10.4 mph - N/A Rain Light Rain
4:30 AM 59.0 °F 57.2 °F 94% 30.15 in 5.6 mi North 10.4 mph - N/A Rain Light Rain
5:00 AM 59.0 °F 57.2 °F 94% 30.12 in 6.2 mi North 10.4 mph - N/A Rain Light Rain
5:18 AM 59.0 °F 57.2 °F 94% 30.15 in 3.1 mi NNW 10.4 mph - N/A Rain Light Rain
5:30 AM 59.0 °F 57.2 °F 94% 30.12 in 3.1 mi NNW 9.2 mph - N/A Rain Light Rain
6:00 AM 59.0 °F 59.0 °F 100% 30.12 in 3.1 mi NNW 10.4 mph - N/A Rain Light Rain
6:13 AM 59.0 °F 59.0 °F 100% 30.15 in 2.5 mi North 10.4 mph - N/A Rain Light Rain
6:30 AM 59.0 °F 57.2 °F 94% 30.15 in 1.9 mi NNW 9.2 mph - N/A Rain Light Rain
7:00 AM 59.0 °F 59.0 °F 100% 30.15 in 3.1 mi NNW 6.9 mph - N/A Rain Light Rain
7:30 AM 59.0 °F 59.0 °F 100% 30.15 in 2.5 mi NW 9.2 mph - N/A Rain Light Rain
7:49 AM 59.0 °F 57.2 °F 94% 30.15 in 4.3 mi NW 6.9 mph - N/A Rain Light Rain
8:00 AM 59.0 °F 59.0 °F 100% 30.15 in 3.7 mi NNW 6.9 mph - N/A Rain Light Rain
8:30 AM 59.0 °F 59.0 °F 100% 30.15 in 3.7 mi NNW 4.6 mph - N/A Rain Light Rain
9:00 AM 60.8 °F 57.2 °F 88% 30.15 in 5.0 mi NNW 6.9 mph - N/A Rain Light Rain
9:30 AM 59.0 °F 57.2 °F 94% 30.15 in 4.3 mi NW 6.9 mph - N/A Rain Light Rain
10:00 AM 60.8 °F 59.0 °F 94% 30.12 in 5.0 mi NNW 5.8 mph - N/A   Mostly Cloudy
10:30 AM 60.8 °F 59.0 °F 94% 30.12 in 5.0 mi North 5.8 mph - N/A   Mostly Cloudy
11:00 AM 60.8 °F 59.0 °F 94% 30.12 in 5.6 mi NNW 4.6 mph - N/A   Mostly Cloudy
11:30 AM 62.6 °F 59.0 °F 88% 30.09 in 5.6 mi North 6.9 mph - N/A   Mostly Cloudy
12:00 PM 62.6 °F 59.0 °F 88% 30.09 in 6.2 mi North 6.9 mph - N/A   Mostly Cloudy
12:30 PM 64.4 °F 59.0 °F 83% 30.06 in 6.2 mi Variable 2.3 mph - N/A   Mostly Cloudy
1:00 PM 62.6 °F 59.0 °F 88% 30.06 in 6.2 mi Variable 2.3 mph - N/A Rain Light Rain
1:20 PM 62.6 °F 59.0 °F 88% 30.06 in 6.2 mi Variable 2.3 mph - N/A Rain Light Rain
1:30 PM 64.4 °F 60.8 °F 88% 30.06 in 6.2 mi Variable 2.3 mph - N/A Rain Light Rain
2:00 PM 62.6 °F 59.0 °F 88% 30.06 in 6.2 mi East 4.6 mph - N/A Rain Light Rain
2:30 PM 62.6 °F 60.8 °F 94% 30.06 in 5.0 mi ESE 3.5 mph - N/A Rain Light Rain
3:00 PM 62.6 °F 60.8 °F 94% 30.06 in 4.3 mi SSE 5.8 mph - N/A Rain Light Rain
3:30 PM 62.6 °F 60.8 °F 94% 30.06 in 4.3 mi Variable 3.5 mph - N/A Rain Light Rain
4:00 PM 64.4 °F 60.8 °F 88% 30.06 in 4.3 mi Variable 2.3 mph - N/A Rain Light Rain
4:30 PM 62.6 °F 60.8 °F 94% 30.04 in 4.3 mi SE 11.5 mph - N/A Rain Light Rain
5:00 PM 62.6 °F 60.8 °F 94% 30.04 in 3.1 mi SSE 15.0 mph - N/A Rain Light Rain
5:17 PM 64.4 °F 62.6 °F 94% 30.04 in 2.5 mi South 6.9 mph - N/A Rain Light Rain
5:30 PM 64.4 °F 62.6 °F 94% 30.04 in 2.2 mi Variable 2.3 mph - N/A Rain Light Rain
6:00 PM 62.6 °F 62.6 °F 100% 30.04 in 2.8 mi WNW 3.5 mph - N/A Rain Light Rain
6:13 PM 62.6 °F 62.6 °F 100% 30.04 in 3.1 mi WNW 4.6 mph - N/A Rain Light Rain
6:30 PM 62.6 °F 62.6 °F 100% 30.04 in 3.1 mi NW 5.8 mph - N/A   Scattered Clouds
7:00 PM 62.6 °F 60.8 °F 94% 30.04 in 3.1 mi NNW 3.5 mph - N/A   Mostly Cloudy
7:30 PM 64.4 °F 62.6 °F 94% 30.06 in 3.7 mi Variable 2.3 mph - N/A   Mostly Cloudy
8:00 PM 64.4 °F 62.6 °F 94% 30.06 in 3.7 mi WNW 4.6 mph - N/A   Mostly Cloudy
8:30 PM 64.4 °F 62.6 °F 94% 30.06 in 3.7 mi NNE 4.6 mph - N/A   Mostly Cloudy
9:00 PM 62.6 °F 62.6 °F 100% 30.06 in 2.8 mi NNE 6.9 mph - N/A   Mostly Cloudy
9:30 PM 62.6 °F 62.6 °F 100% 30.06 in 2.5 mi NNE 4.6 mph - N/A   Mostly Cloudy
10:00 PM 62.6 °F 62.6 °F 100% 30.06 in 2.5 mi Variable 1.2 mph - N/A   Mostly Cloudy
10:30 PM 62.6 °F 62.6 °F 100% 30.06 in 2.8 mi Variable 2.3 mph - N/A   Mostly Cloudy
10:41 PM 62.6 °F 62.6 °F 100% 30.04 in 2.5 mi North 3.5 mph - N/A   Mostly Cloudy
11:00 PM 62.6 °F 62.6 °F 100% 30.04 in 2.2 mi NE 4.6 mph - N/A   Mostly Cloudy
11:16 PM 62.6 °F 62.6 °F 100% 30.04 in 2.2 mi NNE 5.8 mph - N/A   Mostly Cloudy
11:30 PM 62.6 °F 62.6 °F 100% 30.04 in 2.2 mi NNE 4.6 mph - N/A   Mostly Cloudy
11:43 PM 62.6 °F 60.8 °F 94% 30.04 in 2.2 mi NNW 3.5 mph - N/A Rain Light Rain